Hourly Weather Roundup
Issued by NWS

Home | Current Version | Previous Version | Text Only | Print | Product List | Glossary On
Versions: 1 2 3 4 5 6 7 8 9 10 11 12 13 14 15 16 17 18 19 20 21 22 23 24 25 26 27 28 29 30 31 32 33 34 35 36 37 38 39 40 41 42 43 44 45 46 47 48 49 50
000
NZUS43 KILX 041210
HWRCRS

CRS HOURLY WEATHER ROUNDUP
NATIONAL WEATHER SERVICE, LINCOLN IL
700 AM CDT SAT JUL 04 2015


CITY           SKY/WX    TMP DP  RH WIND       PRES   REMARKS
CHAMPAIGN      SUNNY     61  59  93 CALM      29.99R FOG
LAWRENCEVILLE  SUNNY     67  65  93 CALM      29.99R FOG
PEORIA         SUNNY     64  59  83 CALM      29.99R HAZE
SPRINGFIELD    SUNNY     63  60  90 CALM      29.99R
$$


CITY           SKY/WX    TMP DP  RH WIND       PRES   REMARKS
BLOOMINGTON    SUNNY     62  59  90 CALM      30.01R
DECATUR        FOG       60  58  92 MISG      29.99R VSB 3/4
EFFINGHAM      SUNNY     64  61  90 CALM      30.01R FOG
FLORA          SUNNY     65  64  99 CALM      30.00R FOG
GALESBURG      SUNNY     58  58  98 CALM      30.00R FOG
JACKSONVILLE   SUNNY     64  62  96 CALM      29.99R FOG
LACON          MOSUNNY   60  58  96 CALM      29.99R FOG
LINCOLN        SUNNY     60  59  95 CALM      30.00R FOG
LITCHFIELD     SUNNY     61  60  96 CALM      30.00R FOG

CITY           SKY/WX    TMP DP  RH WIND       PRES   REMARKS
MACOMB         SUNNY     58  57  99 CALM      30.01R
MATTOON        SUNNY     61  60  97 CALM      29.98S FOG
MOLINE         SUNNY     59  56  89 CALM      29.99R FOG
OLNEY          SUNNY     64  63  94 CALM      29.99R FOG
PARIS          SUNNY     61  61  99 CALM      30.00R FOG
PONTIAC        SUNNY     60  60  99 CALM      30.00R FOG
QUINCY         SUNNY     62  60  93 NE3       29.99R FOG
RANTOUL        SUNNY     62  60  92 CALM      29.99S FOG
ROBINSON       SUNNY     64  63  98 CALM      29.99R FOG
TAYLORVILLE      N/A     59  59 100 CALM      30.00R FOG
TERRE HAUTE    SUNNY     65  63  93 CALM      29.98R FOG
$$


CITY           SKY/WX    TMP DP  RH WIND       PRES   REMARKS
BURLINGTON     SUNNY     60  59  96 N3        29.99R
CHICAGO        SUNNY     63  57  81 NW3       29.98R
DES MOINES     MOSUNNY   63  56  78 CALM      30.00R
EVANSVILLE     SUNNY     69  65  86 CALM      29.98R FOG
INDIANAPOLIS   SUNNY     65  60  84 N6        29.97R
KANSAS CITY    SUNNY     63  59  87 NE3       30.00S
MILWAUKEE      MOSUNNY   65  55  70 W7        29.97S
ST LOUIS       SUNNY     69  65  86 CALM      30.00R FOG
$$




USA.gov is the U.S. government's official web portal to all federal, state and local government web resources and services.